• In Moldova, Republic
  • List of Countries
  • For 7 days
  • Water Temperature
  • Satellite Maps
  • Weather Map
  • Weather Widgets
  • user-avatar
    Login

    Hourly Weather Shaki

    Today, 28 June, Wednesday

    Time Temperature Precipitation Wind Pressure Humidity
    00:00 +23°C° 0 mm 2 mps 733 mmHg 60%
    01:00 +23°C° 0 mm 2 mps 733 mmHg 61%
    02:00 +22°C° 0 mm 1 mps 733 mmHg 62%
    03:00 +22°C° 0 mm 1 mps 732 mmHg 58%
    04:00 +23°C° 0 mm 1 mps 733 mmHg 57%
    05:00 +25°C° 0 mm 1 mps 733 mmHg 57%
    06:00 +26°C° 0 mm 1 mps 733 mmHg 57%
    07:00 +28°C° 0 mm 1 mps 733 mmHg 52%
    08:00 +29°C° 0 mm 1 mps 733 mmHg 47%
    09:00 +31°C° 0 mm 2 mps 733 mmHg 42%
    10:00 +34°C° 0 mm 2 mps 733 mmHg 39%
    11:00 +35°C° 0 mm 2 mps 732 mmHg 36%
    12:00 +36°C° 0 mm 2 mps 732 mmHg 33%
    13:00 +36°C° 0 mm 3 mps 732 mmHg 32%
    14:00 +37°C° 0 mm 3 mps 731 mmHg 31%
    15:00 +37°C° 0 mm 3 mps 731 mmHg 30%
    16:00 +36°C° 0 mm 3 mps 731 mmHg 32%
    17:00 +36°C° 0 mm 3 mps 731 mmHg 35%
    18:00 +35°C° 0 mm 2 mps 731 mmHg 37%
    19:00 +31°C° 0 mm 2 mps 731 mmHg 43%
    20:00 +28°C° 0 mm 2 mps 731 mmHg 49%
    21:00 +26°C° 0 mm 2 mps 731 mmHg 55%
    22:00 +25°C° 0 mm 2 mps 732 mmHg 56%
    23:00 +24°C° 0 mm 2 mps 732 mmHg 58%

    Tomorrow, 29 June, Thursday

    Time Temperature Precipitation Wind Pressure Humidity
    00:00 +23°C° 0 mm 1 mps 732 mmHg 59%
    01:00 +23°C° 0 mm 1 mps 732 mmHg 60%
    02:00 +22°C° 0 mm 1 mps 731 mmHg 61%
    03:00 +22°C° 0 mm 1 mps 731 mmHg 61%
    04:00 +23°C° 0 mm 1 mps 732 mmHg 56%
    05:00 +25°C° 0 mm 1 mps 732 mmHg 51%
    06:00 +27°C° 0 mm 1 mps 732 mmHg 46%
    07:00 +29°C° 0 mm 1 mps 732 mmHg 40%
    08:00 +31°C° 0 mm 1 mps 732 mmHg 34%
    09:00 +34°C° 0 mm 2 mps 732 mmHg 28%
    10:00 +35°C° 0 mm 2 mps 732 mmHg 26%
    11:00 +36°C° 0 mm 2 mps 732 mmHg 25%
    12:00 +37°C° 0 mm 2 mps 732 mmHg 23%
    13:00 +37°C° 0 mm 2 mps 731 mmHg 23%
    14:00 +37°C° 0 mm 2 mps 731 mmHg 23%
    15:00 +37°C° 0 mm 2 mps 731 mmHg 22%
    16:00 +37°C° 0 mm 2 mps 731 mmHg 24%
    17:00 +36°C° 0 mm 2 mps 731 mmHg 26%
    18:00 +35°C° 0 mm 2 mps 731 mmHg 28%
    19:00 +31°C° 0 mm 2 mps 731 mmHg 34%
    20:00 +28°C° 0 mm 2 mps 731 mmHg 39%
    21:00 +26°C° 0 mm 2 mps 731 mmHg 45%
    22:00 +25°C° 0 mm 2 mps 731 mmHg 46%
    23:00 +24°C° 0 mm 1 mps 731 mmHg 46%

    Day after tomorrow, 30 June, Friday

    Time Temperature Precipitation Wind Pressure Humidity
    00:00 +24°C° 0 mm 1 mps 731 mmHg 47%
    01:00 +24°C° 0 mm 1 mps 731 mmHg 47%
    02:00 +23°C° 0 mm 1 mps 731 mmHg 48%
    03:00 +23°C° 0 mm 1 mps 731 mmHg 48%
    04:00 +24°C° 0 mm 1 mps 732 mmHg 46%
    05:00 +26°C° 0 mm 1 mps 732 mmHg 44%
    06:00 +27°C° 0 mm 1 mps 732 mmHg 43%
    07:00 +29°C° 0 mm 2 mps 732 mmHg 37%
    08:00 +31°C° 0 mm 2 mps 733 mmHg 31%
    09:00 +34°C° 0 mm 3 mps 733 mmHg 25%
    10:00 +35°C° 0.1 mm 2 mps 733 mmHg 24%
    11:00 +36°C° 0.1 mm 2 mps 733 mmHg 22%
    12:00 +35°C° 0.1 mm 1 mps 732 mmHg 21%
    13:00 +36°C° 0.1 mm 1 mps 732 mmHg 21%
    14:00 +36°C° 0.1 mm 1 mps 732 mmHg 20%
    15:00 +37°C° 0.1 mm 2 mps 732 mmHg 20%
    16:00 +36°C° 0.1 mm 2 mps 732 mmHg 21%
    17:00 +36°C° 0.1 mm 2 mps 732 mmHg 23%
    18:00 +35°C° 0.1 mm 2 mps 732 mmHg 24%
    19:00 +32°C° 0 mm 2 mps 733 mmHg 28%
    20:00 +29°C° 0 mm 2 mps 733 mmHg 33%
    21:00 +27°C° 0 mm 3 mps 733 mmHg 37%
    22:00 +26°C° 0 mm 2 mps 733 mmHg 38%
    23:00 +26°C° 0 mm 2 mps 733 mmHg 39%

    1 July, Saturday

    Time Temperature Precipitation Wind Pressure Humidity
    00:00 +25°C° 0 mm 2 mps 734 mmHg 40%
    01:00 +25°C° 0 mm 2 mps 734 mmHg 41%
    02:00 +24°C° 0 mm 2 mps 734 mmHg 42%
    03:00 +24°C° 0 mm 2 mps 734 mmHg 44%
    04:00 +25°C° 0 mm 2 mps 734 mmHg 43%
    05:00 +26°C° 0 mm 2 mps 734 mmHg 43%
    06:00 +27°C° 0 mm 2 mps 735 mmHg 42%
    07:00 +29°C° 0 mm 2 mps 735 mmHg 36%
    08:00 +31°C° 0 mm 2 mps 735 mmHg 30%
    09:00 +34°C° 0 mm 2 mps 735 mmHg 23%
    10:00 +36°C° 0 mm 2 mps 735 mmHg 21%
    11:00 +37°C° 0 mm 2 mps 735 mmHg 19%
    12:00 +37°C° 0 mm 1 mps 735 mmHg 17%
    13:00 +38°C° 0 mm 2 mps 734 mmHg 17%
    14:00 +38°C° 0 mm 3 mps 734 mmHg 16%
    15:00 +39°C° 0 mm 3 mps 734 mmHg 16%
    16:00 +38°C° 0 mm 3 mps 734 mmHg 18%
    17:00 +37°C° 0 mm 3 mps 734 mmHg 20%
    18:00 +36°C° 0 mm 3 mps 734 mmHg 22%
    19:00 +33°C° 0 mm 3 mps 734 mmHg 27%
    20:00 +30°C° 0 mm 2 mps 734 mmHg 32%
    21:00 +27°C° 0 mm 2 mps 734 mmHg 37%
    22:00 +26°C° 0 mm 2 mps 734 mmHg 38%
    23:00 +25°C° 0 mm 2 mps 734 mmHg 39%

    2 July, Sunday

    Time Temperature Precipitation Wind Pressure Humidity
    00:00 +24°C° 0 mm 2 mps 734 mmHg 40%
    01:00 +24°C° 0 mm 2 mps 734 mmHg 39%
    02:00 +23°C° 0 mm 1 mps 734 mmHg 39%
    03:00 +23°C° 0 mm 1 mps 734 mmHg 39%
    04:00 +25°C° 0 mm 1 mps 734 mmHg 37%
    05:00 +26°C° 0 mm 1 mps 734 mmHg 36%
    06:00 +28°C° 0 mm 1 mps 734 mmHg 34%
    07:00 +30°C° 0 mm 1 mps 734 mmHg 29%
    08:00 +32°C° 0 mm 1 mps 734 mmHg 23%
    09:00 +35°C° 0 mm 2 mps 734 mmHg 18%
    10:00 +36°C° 0 mm 2 mps 733 mmHg 17%
    11:00 +37°C° 0 mm 2 mps 733 mmHg 16%
    12:00 +38°C° 0 mm 3 mps 733 mmHg 15%
    13:00 +39°C° 0 mm 3 mps 732 mmHg 15%
    14:00 +40°C° 0 mm 4 mps 732 mmHg 15%
    15:00 +41°C° 0 mm 4 mps 731 mmHg 14%
    16:00 +40°C° 0 mm 4 mps 731 mmHg 17%
    17:00 +38°C° 0 mm 4 mps 731 mmHg 19%
    18:00 +36°C° 0 mm 4 mps 731 mmHg 21%
    19:00 +34°C° 0 mm 4 mps 731 mmHg 23%
    20:00 +30°C° 0 mm 3 mps 731 mmHg 26%
    21:00 +28°C° 0 mm 3 mps 732 mmHg 29%
    22:00 +27°C° 0 mm 3 mps 731 mmHg 31%
    23:00 +27°C° 0 mm 2 mps 731 mmHg 33%

    3 July, Monday

    Time Temperature Precipitation Wind Pressure Humidity
    00:00 +26°C° 0 mm 2 mps 731 mmHg 34%
    01:00 +26°C° 0 mm 2 mps 731 mmHg 35%
    02:00 +25°C° 0 mm 2 mps 731 mmHg 36%
    03:00 +25°C° 0 mm 2 mps 730 mmHg 37%
    04:00 +26°C° 0 mm 2 mps 730 mmHg 36%
    05:00 +27°C° 0 mm 2 mps 731 mmHg 36%
    06:00 +28°C° 0 mm 2 mps 731 mmHg 35%
    07:00 +30°C° 0 mm 2 mps 730 mmHg 30%
    08:00 +32°C° 0 mm 2 mps 730 mmHg 25%
    09:00 +35°C° 0 mm 2 mps 730 mmHg 20%
    10:00 +36°C° 0 mm 2 mps 729 mmHg 19%
    11:00 +37°C° 0 mm 2 mps 729 mmHg 18%
    12:00 +38°C° 0 mm 2 mps 729 mmHg 17%
    13:00 +39°C° 0 mm 2 mps 728 mmHg 16%
    14:00 +39°C° 0 mm 2 mps 728 mmHg 16%
    15:00 +40°C° 0 mm 2 mps 728 mmHg 16%
    16:00 +39°C° 0 mm 2 mps 727 mmHg 19%
    17:00 +38°C° 0 mm 2 mps 727 mmHg 21%
    18:00 +37°C° 0 mm 2 mps 727 mmHg 23%
    19:00 +34°C° 0 mm 2 mps 727 mmHg 27%
    20:00 +31°C° 0 mm 2 mps 728 mmHg 31%
    21:00 +28°C° 0 mm 2 mps 728 mmHg 35%
    22:00 +27°C° 0 mm 2 mps 728 mmHg 36%
    23:00 +27°C° 0 mm 2 mps 728 mmHg 37%
    Show more